[[{"header":{"parameterUnit":"m.s-1","parameterCategory":1,"la1":30.2991,"la2":30.254,"lo1":-89.0895,"lo2":-89.0444,"dy":0.0017,"dx":0.0017,"nx":28,"ny":28,"refTime":"2025-01-10T03:00:00:Z","depth":0,"parameterNumber":2,"parameterNumberName":"U-component_of_WINDS"},"data":[0,0,0,0,0,0,0,0,0,0,0,0,0,0,0,0,0,0,0,0,0,0,0,0,0,0,0,0,0,0,0,0,0,0,0,0,0,0,0,0,0,0,0,0,0,0,0,0,0,0,0,0,0,0,0,0,0,0,5.3427,5.3428,0,5.3548,5.355,5.3551,5.3495,5.3492,5.3489,5.3486,5.3611,5.3617,5.3623,0,0,0,0,0,0,0,0,0,0,0,0,0,5.3149,5.3154,5.3427,5.3428,5.343,5.3548,5.355,5.3551,5.3496,5.3492,5.3488,5.3485,5.3609,5.3616,5.3624,0,0,0,0,0,0,0,0,0,0,0,0,0,5.327,5.3156,5.3427,5.3416,5.3417,5.3548,5.355,5.3552,5.3496,5.3492,5.3487,5.3483,5.3607,5.3616,5.3625,5.3773,0,0,5.3653,5.3657,0,0,0,0,0,0,0,0,5.3263,5.328,5.3416,5.3417,5.3418,5.3502,5.3497,5.3626,5.3498,5.3466,5.3486,5.3481,5.3578,5.359,5.3623,5.3779,5.3784,5.3654,5.3659,5.3663,5.3666,0,0,0,0,0,0,0,5.3255,5.3274,5.3475,5.3418,5.3419,5.3406,5.3418,5.3522,5.3546,5.3469,5.3465,5.348,5.3578,5.3614,5.3625,5.3786,5.3654,5.3662,5.3667,5.3671,5.4073,5.4078,0,0,0,0,0,0,5.3246,5.3268,5.3471,5.3478,5.3327,5.3415,5.3429,5.348,5.3545,5.3551,5.3484,5.3477,5.36,5.3614,5.3629,5.3809,5.3663,5.3672,5.3677,5.4068,5.4074,5.408,0,0,0,0,0,0,5.324,5.3265,5.3466,5.3372,5.3397,5.3425,5.3482,5.3484,5.352,5.3557,5.3561,5.3516,5.3597,5.3616,5.3738,5.3813,5.3676,5.3685,5.4062,5.407,5.4077,5.4169,0,0,0,0,0,0,5.3233,5.3263,5.3319,5.3374,5.3402,5.3573,5.3487,5.349,5.3536,5.3528,5.3588,5.3593,5.3595,5.3725,5.3748,5.3823,5.3692,5.4056,5.4066,5.4075,5.4159,5.4179,5.4195,0,0,0,0,0,5.3223,5.334,5.3322,5.3347,5.3473,5.3577,5.3593,5.3593,5.3542,5.3599,5.3623,5.3591,5.3801,5.3738,5.3763,5.3842,5.4051,5.4063,5.4074,5.4151,5.4175,5.4195,0,0,0,0,0,0,5.3293,5.3347,5.3328,5.3466,5.3518,5.3567,5.3639,5.3618,5.3685,5.3675,5.3672,5.3686,5.3813,5.3839,5.3768,5.3991,5.3918,5.3935,5.3968,5.3991,5.4009,5.4,5.3699,0,0,0,0,0,5.3324,5.3404,5.3447,5.3565,5.3592,5.3612,5.3657,5.3652,5.3706,5.3727,5.376,5.3813,5.3891,5.3942,5.4016,5.4163,5.4176,5.423,5.4248,5.4263,5.4278,5.4359,5.4384,5.4118,5.4118,5.4118,0,0,5.339,5.3429,5.348,5.358,5.3619,5.3703,5.363,5.3721,5.3784,5.3741,5.3859,5.3885,5.3944,5.408,5.4142,5.4106,5.4354,5.4277,5.4289,5.4296,5.4374,5.4399,5.4422,5.4126,5.4124,5.4123,0,0,5.3553,5.359,5.3693,5.3735,5.3796,5.3808,5.3833,5.3887,5.3903,5.4021,5.3992,5.4066,5.42,5.4244,5.4284,5.4467,5.444,5.4491,5.4585,5.4665,5.4686,5.4704,5.4771,5.4795,5.4505,5.4506,5.4506,0,5.3627,5.3752,5.3749,5.3843,5.3889,5.3855,5.396,5.4,5.4082,5.4115,5.4074,5.4243,5.428,5.4427,5.4472,5.4505,5.4534,5.4484,5.4683,5.4702,5.4719,5.4782,5.4807,5.4512,5.4511,5.451,5.451,0,5.3841,5.3928,5.4004,5.4084,5.4138,5.4238,5.4251,5.4306,5.4298,5.4315,5.4437,5.4481,5.4564,5.4598,5.459,5.4745,5.4721,5.4682,5.4609,5.475,5.481,5.4834,5.452,5.4518,5.4516,5.4515,0,0,5.405,5.4129,5.4157,5.4195,5.426,5.4328,5.4426,5.4507,5.4556,5.4614,5.4697,5.4812,5.4777,5.4823,5.482,5.489,5.5034,5.4842,5.4843,5.4877,5.5209,5.5238,5.5266,5.5016,5.5021,5.5025,5.5204,0,5.4219,5.4391,5.4392,5.4551,5.4633,5.4603,5.4688,5.4739,5.4758,5.4831,5.4852,5.4934,5.4881,5.4908,5.4976,5.5002,5.51,5.4989,5.5095,5.5099,5.5082,5.5297,5.5329,5.5496,5.5227,5.5231,5.5234,0,5.4438,5.4504,5.4672,5.4727,5.4761,5.4839,5.4914,5.4984,5.5041,5.505,5.5102,5.5089,5.5191,5.5115,5.5256,5.518,5.5224,5.5244,5.525,5.526,5.5175,5.5315,5.5549,5.5574,5.527,5.5267,5.5265,0,5.4576,5.4707,5.4824,5.4857,5.4924,5.498,5.501,5.5063,5.5112,5.5179,5.5211,5.5289,5.5331,5.5392,5.5401,5.5345,5.5544,5.5468,5.5555,5.5555,5.5598,5.5596,5.5844,5.5626,5.5625,5.5625,5.5624,0,5.4765,5.4869,5.4887,5.496,5.5076,5.5077,5.5192,5.5218,5.5266,5.5344,5.5322,5.5395,5.5402,5.5479,5.5486,5.5603,5.5622,5.5633,5.5634,5.5636,5.5635,5.5665,5.5654,5.5631,5.563,5.5629,5.5627,0,5.4939,5.4955,5.5081,5.5135,5.5151,5.5235,5.5281,5.5351,5.5369,5.5468,5.5491,5.5519,5.5608,5.5623,5.5727,5.5732,5.5872,5.5861,5.5853,5.5852,5.5939,5.5931,5.6216,5.6254,5.601,5.6012,5.6014,0,5.5058,5.5138,5.5201,5.5251,5.5285,5.5367,5.5417,5.5422,5.5476,5.5548,5.561,5.5696,5.5766,5.591,5.594,5.602,5.6011,5.6105,5.6023,5.6023,5.6014,5.601,5.6018,5.6121,5.6124,5.6126,5.6128,0,5.527,5.5274,5.5348,5.5426,5.5487,5.5549,5.5606,5.5649,5.5662,5.5724,5.5814,5.5869,5.5976,5.6063,5.6143,5.6175,5.6155,5.6154,5.6178,5.6181,5.6174,5.618,5.5898,5.6147,5.6145,5.6144,5.6143,5.6142,5.5421,5.5491,5.5547,5.563,5.5674,5.573,5.5798,5.5825,5.5901,5.5988,5.5987,5.6087,5.6144,5.6249,5.6287,5.6366,5.6336,5.6371,5.6381,5.6389,5.6399,5.6161,5.6381,5.638,5.638,5.6379,5.6379,0,5.5633,5.5667,5.5744,5.5826,5.5893,5.5867,5.5931,5.5988,5.6076,5.6131,5.62,5.6305,5.639,5.6428,5.6511,5.6567,5.656,5.6589,5.6586,5.6594,5.642,5.6391,5.6594,5.6594,5.6594,5.6594,5.6594,5.6594,5.575,5.5868,5.588,5.6019,5.6053,5.6151,5.619,5.6241,5.6285,5.6403,5.6474,5.6497,5.6546,5.6633,5.671,5.6719,5.6752,5.6786,5.679,5.6628,5.6606,5.6585,5.6558,5.6792,5.6793,5.6958,5.6959,5.696]},{"header":{"parameterUnit":"m.s-1","parameterCategory":1,"la1":30.2991,"la2":30.254,"lo1":-89.0895,"lo2":-89.0444,"dy":0.0017,"dx":0.0017,"nx":28,"ny":28,"refTime":"2025-01-10T03:00:00:Z","depth":0,"parameterNumber":3,"parameterNumberName":"V-component_of_WINDS"},"data":[0,0,0,0,0,0,0,0,0,0,0,0,0,0,0,0,0,0,0,0,0,0,0,0,0,0,0,0,0,0,0,0,0,0,0,0,0,0,0,0,0,0,0,0,0,0,0,0,0,0,0,0,0,0,0,0,0,0,-5.1561,-5.1562,0,-5.1637,-5.1638,-5.1639,-5.1617,-5.1615,-5.1614,-5.1612,-5.1687,-5.169,-5.1693,0,0,0,0,0,0,0,0,0,0,0,0,0,-5.1392,-5.1395,-5.1561,-5.1562,-5.1563,-5.1637,-5.1638,-5.1639,-5.1617,-5.1615,-5.1613,-5.1612,-5.1685,-5.1689,-5.1694,0,0,0,0,0,0,0,0,0,0,0,0,0,-5.1466,-5.1396,-5.1561,-5.1561,-5.1562,-5.1637,-5.1638,-5.164,-5.1618,-5.1615,-5.1613,-5.1611,-5.1684,-5.1689,-5.1694,-5.1773,0,0,-5.171,-5.1712,0,0,0,0,0,0,0,0,-5.1462,-5.1473,-5.156,-5.1561,-5.1562,-5.1615,-5.1606,-5.1684,-5.1618,-5.1596,-5.1612,-5.161,-5.1664,-5.1671,-5.169,-5.1776,-5.178,-5.171,-5.1713,-5.1716,-5.1717,0,0,0,0,0,0,0,-5.1457,-5.1469,-5.1591,-5.1561,-5.1562,-5.1556,-5.1564,-5.1621,-5.1642,-5.1598,-5.1597,-5.1606,-5.1665,-5.1686,-5.1692,-5.1781,-5.171,-5.1715,-5.1718,-5.172,-5.1934,-5.1937,0,0,0,0,0,0,-5.1452,-5.1465,-5.1589,-5.1593,-5.1505,-5.1561,-5.157,-5.16,-5.1642,-5.1646,-5.1608,-5.1605,-5.1678,-5.1686,-5.1695,-5.1789,-5.1716,-5.172,-5.1723,-5.1931,-5.1935,-5.1937,0,0,0,0,0,0,-5.1448,-5.1463,-5.1585,-5.1529,-5.1544,-5.1566,-5.1601,-5.1603,-5.1624,-5.165,-5.1653,-5.1626,-5.1676,-5.1687,-5.1754,-5.1791,-5.1723,-5.1727,-5.1928,-5.1932,-5.1936,-5.1978,0,0,0,0,0,0,-5.1443,-5.1462,-5.1493,-5.153,-5.1547,-5.1645,-5.1603,-5.1606,-5.1634,-5.163,-5.1667,-5.1671,-5.1675,-5.1746,-5.1759,-5.1797,-5.1732,-5.1925,-5.193,-5.1935,-5.1973,-5.1983,-5.1991,0,0,0,0,0,-5.1438,-5.1501,-5.1495,-5.151,-5.1587,-5.1647,-5.1657,-5.1662,-5.1637,-5.1667,-5.1684,-5.167,-5.1785,-5.1753,-5.1767,-5.1807,-5.1923,-5.1929,-5.1934,-5.1969,-5.1981,-5.1991,0,0,0,0,0,0,-5.1466,-5.1506,-5.1499,-5.1577,-5.1609,-5.1643,-5.1682,-5.1674,-5.1713,-5.1708,-5.1711,-5.172,-5.1788,-5.1804,-5.1768,-5.1885,-5.185,-5.1859,-5.1872,-5.1883,-5.1892,-5.1886,-5.1736,0,0,0,0,0,-5.1482,-5.1529,-5.156,-5.1625,-5.1642,-5.1659,-5.1686,-5.1687,-5.172,-5.1733,-5.1754,-5.1785,-5.1829,-5.1857,-5.1898,-5.1976,-5.1983,-5.2011,-5.2019,-5.2027,-5.2034,-5.2075,-5.2088,-5.1957,-5.1957,-5.1956,0,0,-5.1514,-5.1541,-5.157,-5.1632,-5.1657,-5.1704,-5.1671,-5.1722,-5.1757,-5.174,-5.1804,-5.1821,-5.1856,-5.1929,-5.1961,-5.1944,-5.2072,-5.2034,-5.204,-5.2043,-5.2083,-5.2095,-5.2106,-5.1961,-5.196,-5.1959,0,0,-5.1596,-5.1623,-5.168,-5.1706,-5.1745,-5.1756,-5.177,-5.1805,-5.1816,-5.1881,-5.187,-5.191,-5.1985,-5.201,-5.2033,-5.2126,-5.2114,-5.2139,-5.2185,-5.2225,-5.2235,-5.2244,-5.2276,-5.2288,-5.2146,-5.2147,-5.2147,0,-5.1631,-5.1703,-5.1709,-5.1762,-5.1789,-5.1778,-5.1835,-5.186,-5.1909,-5.1928,-5.1908,-5.2002,-5.2025,-5.2103,-5.2125,-5.2144,-5.2159,-5.2134,-5.2234,-5.2243,-5.2251,-5.2282,-5.2294,-5.2149,-5.2149,-5.2149,-5.2148,0,-5.1743,-5.1793,-5.1834,-5.1884,-5.1916,-5.197,-5.1984,-5.2015,-5.2014,-5.2027,-5.2092,-5.212,-5.2166,-5.2185,-5.2184,-5.2262,-5.225,-5.2233,-5.2197,-5.2266,-5.2295,-5.2307,-5.2153,-5.2152,-5.2151,-5.2151,0,0,-5.1845,-5.1898,-5.1913,-5.1935,-5.1978,-5.2016,-5.207,-5.2116,-5.2142,-5.2177,-5.2221,-5.2285,-5.2269,-5.2295,-5.2297,-5.2332,-5.2403,-5.231,-5.2311,-5.2325,-5.249,-5.2502,-5.2516,-5.2396,-5.2398,-5.24,-5.2486,0,-5.193,-5.2026,-5.2033,-5.2119,-5.2165,-5.2155,-5.2202,-5.2232,-5.2246,-5.2285,-5.23,-5.2345,-5.2321,-5.2336,-5.2371,-5.2387,-5.2436,-5.2381,-5.2435,-5.2437,-5.2425,-5.2531,-5.2544,-5.2624,-5.2498,-5.25,-5.2501,0,-5.2042,-5.2082,-5.2173,-5.2208,-5.2228,-5.227,-5.2313,-5.2352,-5.2385,-5.2393,-5.2422,-5.2419,-5.2473,-5.2436,-5.251,-5.2472,-5.2495,-5.2506,-5.2509,-5.2513,-5.2472,-5.2536,-5.265,-5.2662,-5.2519,-5.2518,-5.2516,0,-5.2106,-5.2182,-5.2246,-5.2265,-5.2309,-5.2339,-5.2358,-5.239,-5.2417,-5.2455,-5.2472,-5.2515,-5.2538,-5.2571,-5.2579,-5.2552,-5.2652,-5.2616,-5.2658,-5.2658,-5.2678,-5.2677,-5.2796,-5.2695,-5.2695,-5.2695,-5.2695,0,-5.22,-5.2255,-5.2275,-5.2314,-5.2376,-5.2384,-5.2444,-5.2461,-5.249,-5.2531,-5.2525,-5.2564,-5.2573,-5.2613,-5.2619,-5.2678,-5.2689,-5.2695,-5.2696,-5.2695,-5.2694,-5.2709,-5.2703,-5.2698,-5.2697,-5.2697,-5.2696,0,-5.2281,-5.2296,-5.2365,-5.2402,-5.2412,-5.2456,-5.2486,-5.2523,-5.2536,-5.2588,-5.2601,-5.2621,-5.2668,-5.268,-5.2735,-5.274,-5.2809,-5.2805,-5.2798,-5.2797,-5.2838,-5.2833,-5.297,-5.2987,-5.2876,-5.2878,-5.2878,0,-5.2339,-5.2381,-5.2423,-5.2451,-5.2472,-5.2517,-5.2545,-5.2554,-5.2584,-5.2626,-5.2658,-5.2704,-5.2742,-5.2817,-5.2835,-5.2878,-5.2874,-5.2919,-5.288,-5.2878,-5.2873,-5.287,-5.2874,-5.2926,-5.2927,-5.2928,-5.2929,0,-5.244,-5.2446,-5.2488,-5.2533,-5.2567,-5.2603,-5.2636,-5.2659,-5.2673,-5.2706,-5.2755,-5.2784,-5.2842,-5.2887,-5.293,-5.2948,-5.294,-5.2941,-5.2952,-5.2951,-5.2945,-5.2948,-5.2817,-5.2937,-5.2936,-5.2936,-5.2935,-5.2935,-5.2511,-5.2548,-5.2583,-5.263,-5.2656,-5.2688,-5.2725,-5.2743,-5.2784,-5.2832,-5.2835,-5.2887,-5.2919,-5.2976,-5.2997,-5.3037,-5.3024,-5.3041,-5.3045,-5.3049,-5.3052,-5.294,-5.3045,-5.3045,-5.3045,-5.3045,-5.3045,0,-5.2611,-5.2633,-5.2676,-5.2724,-5.2761,-5.2752,-5.2789,-5.2819,-5.2866,-5.2898,-5.2935,-5.299,-5.3035,-5.3057,-5.3101,-5.3129,-5.3126,-5.314,-5.3137,-5.3141,-5.3062,-5.3047,-5.3141,-5.3141,-5.3141,-5.3141,-5.3141,-5.3141,-5.2667,-5.2729,-5.2739,-5.2815,-5.2836,-5.2888,-5.291,-5.2939,-5.2964,-5.3027,-5.3064,-5.3079,-5.3106,-5.3152,-5.3192,-5.3197,-5.3213,-5.3228,-5.3232,-5.3157,-5.3147,-5.3137,-5.3123,-5.3232,-5.3232,-5.3307,-5.3308,-5.3309]}]]